sat.trackr.live / text

‹ back to catalog

STARLINK-35249

NORAD 65901 · 2025-224V

PAYLOAD ACTIVE UNKNOWN

§ Identity

Operator
Country
US
Launch date
2025-10-07
Launch site
AFETR
Launch vehicle
Mass (kg)
RCS (m²)

Purposes: comms

External: N2YO · Heavens-Above · Gunter

§ Orbital elements

Epoch: 2026-09-20T06:17:33.275616Z

Period
93.85 min
Inclination
53.1590°
Eccentricity
0.0000757
Mean motion
15.34405235 rev/d
Perigee alt
462.2 km
Apogee alt
463.2 km
Semi-major
6,840.8 km
B*
6.5607e-4
RAAN
186.9054°
Arg perigee
102.5521°
Mean anomaly
257.5566°
Rev number
5,465

§ Raw data

STARLINK-352491 65901U 25224V   26263.26219069  .00021859  00000+0  65607-3 0  99912 65901  53.1590 186.9054 0000757 102.5521 257.5566 15.34405235 54652

JSON: /api/v1/satellites/65901 · /tle

For live sub-satellite position, see the globe view (requires WebGL).

§ Visibility from observer

Set your observer location to see the next 7 days of passes ≥ 10°. The values pass through the URL so the page stays shareable.

No JS? Fill the form by hand. The geolocation button needs JavaScript.